Change the Weather History Date:

Tuesday, August 12, 2014

  Actual Average (KRMG) Record (KRMG)
Temperature  
Mean Temperature 76 °F 79 °F  
Max Temperature 86 °F 90 °F 100 °F (1999)
Min Temperature 66 °F 68 °F 57 °F (2012)
Cooling Degree Days 11 14  
Month to date cooling degree days 173  
Year to date cooling degree days 1117  
Since 1 June cooling degree days 949  
Growing Degree Days 26 (Base 50)    
Moisture  
Dew Point 65 °F    
Average Humidity 70    
Maximum Humidity 94    
Minimum Humidity 43    
Precipitation  
Precipitation 0.00 in 0.14 in 0.77 in (2003)
Month to date precipitation 1.64  
Year to date precipitation 32.93  
Sea Level Pressure  
Sea Level Pressure 29.92 in    
Wind  
Wind Speed 3 mph (NW)    
Max Wind Speed 15 mph    
Max Gust Speed -    
Visibility 9 miles    
Events      
T = Trace of Precipitation, MM = Missing Value Source: NWS Daily Summary

Daily Weather History Graph

Daily Weather History Graph

Search for Another Location

Airport or City:

Trip Planner

Search our weather history database for the weather conditions in past years. The results will help you decide how hot, cold, wet, or windy it might be!

Date:

Astronomy

Aug. 12, 2014 Rise Set
Actual Time 6:01 AM CDT 7:33 PM CDT
Civil Twilight 5:34 AM CDT 8:00 PM CDT
Nautical Twilight 5:02 AM CDT 8:32 PM CDT
Astronomical Twilight 4:28 AM CDT 9:06 PM CDT
Moon 8:50 PM CDT (8/12) 8:10 AM CDT (8/12)
Length of Visible Light 14h 25m
Length of Day
13h 32m
Waning Gibbous, 94% of the Moon is Illuminated
Aug 12
Waning Gibbous
Aug 17
Last Quarter
Aug 25
New
Sep 2
First Quarter
Sep 8
Full

Hourly Weather History & Observations

Time (CDT) Temp. Heat Index Dew Point Humidity Pressure Visibility Wind Dir Wind Speed Gust Speed Precip Events Conditions
3:35 AM 71.6 °F - 69.8 °F 94% 29.92 in 5.0 mi Calm Calm - N/A   Mostly Cloudy
3:55 AM 71.6 °F - 69.8 °F 94% 29.91 in 5.0 mi SW 3.5 mph - N/A   Scattered Clouds
4:15 AM 71.6 °F - 68.0 °F 88% 29.91 in 4.0 mi Calm Calm - N/A   Scattered Clouds
4:35 AM 71.6 °F - 68.0 °F 88% 29.91 in 4.0 mi Calm Calm - N/A   Mostly Cloudy
5:35 AM 71.6 °F - 69.8 °F 94% 29.91 in 5.0 mi Calm Calm - N/A   Overcast
5:55 AM 71.6 °F - 68.0 °F 88% 29.91 in 5.0 mi Calm Calm - N/A   Mostly Cloudy
6:15 AM 71.6 °F - 68.0 °F 88% 29.92 in 3.0 mi Calm Calm - N/A   Mostly Cloudy
6:35 AM 71.6 °F - 68.0 °F 88% 29.92 in 5.0 mi Calm Calm - N/A   Mostly Cloudy
6:55 AM 71.6 °F - 68.0 °F 88% 29.92 in 7.0 mi Calm Calm - N/A   Mostly Cloudy
7:15 AM 71.6 °F - 68.0 °F 88% 29.93 in 7.0 mi Calm Calm - N/A   Overcast
7:35 AM 73.4 °F - 68.0 °F 83% 29.93 in 7.0 mi Calm Calm - N/A   Overcast
7:55 AM 73.4 °F - 68.0 °F 83% 29.93 in 7.0 mi Calm Calm - N/A   Overcast
8:15 AM 73.4 °F - 68.0 °F 83% 29.93 in 7.0 mi Calm Calm - N/A   Mostly Cloudy
8:35 AM 73.4 °F - 68.0 °F 83% 29.94 in 7.0 mi Calm Calm - N/A   Scattered Clouds
8:55 AM 75.2 °F - 68.0 °F 78% 29.94 in 7.0 mi WNW 6.9 mph - N/A   Mostly Cloudy
9:35 AM 77.0 °F - 68.0 °F 74% 29.94 in 10.0 mi West 5.8 mph - N/A   Mostly Cloudy
9:55 AM 77.0 °F - 66.2 °F 69% 29.94 in 10.0 mi NW 5.8 mph - N/A   Mostly Cloudy
10:15 AM 78.8 °F - 66.2 °F 65% 29.94 in 10.0 mi North 5.8 mph - N/A   Scattered Clouds
10:35 AM 78.8 °F - 64.4 °F 61% 29.94 in 10.0 mi NNW 4.6 mph - N/A   Scattered Clouds
10:55 AM 78.8 °F - 64.4 °F 61% 29.94 in 10.0 mi NW 6.9 mph - N/A   Mostly Cloudy
12:35 PM 84.2 °F 85.0 °F 62.6 °F 48% 29.93 in 10.0 mi NW 8.1 mph - N/A   Scattered Clouds
12:55 PM 84.2 °F 85.0 °F 62.6 °F 48% 29.92 in 10.0 mi West 9.2 mph - N/A   Scattered Clouds
1:15 PM 84.2 °F 85.0 °F 62.6 °F 48% 29.92 in 10.0 mi West 8.1 mph - N/A   Mostly Cloudy
1:35 PM 84.2 °F 85.0 °F 62.6 °F 48% 29.91 in 10.0 mi WNW 6.9 mph - N/A   Scattered Clouds
1:55 PM 84.2 °F 85.0 °F 62.6 °F 48% 29.91 in 10.0 mi NW 9.2 mph - N/A   Scattered Clouds
2:15 PM 84.2 °F 84.4 °F 60.8 °F 45% 29.90 in 10.0 mi NNW 6.9 mph - N/A   Scattered Clouds
2:35 PM 86.0 °F 86.6 °F 62.6 °F 45% 29.89 in 10.0 mi West 9.2 mph - N/A   Clear
2:55 PM 86.0 °F 86.1 °F 60.8 °F 43% 29.88 in 10.0 mi WNW 8.1 mph - N/A   Scattered Clouds
3:15 PM 86.0 °F 86.1 °F 60.8 °F 43% 29.88 in 10.0 mi WNW 6.9 mph - N/A   Scattered Clouds
3:55 PM 86.0 °F 86.1 °F 60.8 °F 43% 29.88 in 10.0 mi West 15.0 mph - N/A   Mostly Cloudy
4:15 PM 84.2 °F 84.4 °F 60.8 °F 45% 29.88 in 10.0 mi West 8.1 mph - N/A   Mostly Cloudy
4:35 PM 77.0 °F - 62.6 °F 61% 29.90 in 10.0 mi NNW 13.8 mph - N/A   Overcast
5:15 PM 75.2 °F - 62.6 °F 65% 29.90 in 10.0 mi East 4.6 mph - N/A   Overcast
5:35 PM 77.0 °F - 60.8 °F 57% 29.89 in 10.0 mi NNE 3.5 mph - N/A   Mostly Cloudy
5:55 PM 78.8 °F - 60.8 °F 54% 29.89 in 10.0 mi Calm Calm - N/A   Scattered Clouds
6:15 PM 78.8 °F - 60.8 °F 54% 29.90 in 10.0 mi Calm Calm - N/A   Clear
6:55 PM 75.2 °F - 64.4 °F 69% 29.90 in 10.0 mi Calm Calm - N/A   Overcast
7:15 PM 75.2 °F - 64.4 °F 69% 29.91 in 10.0 mi Calm Calm - N/A   Overcast
7:35 PM 73.4 °F - 64.4 °F 73% 29.91 in 10.0 mi Calm Calm - N/A   Overcast
7:55 PM 73.4 °F - 64.4 °F 73% 29.91 in 10.0 mi Calm Calm - N/A   Mostly Cloudy
8:15 PM 73.4 °F - 64.4 °F 73% 29.92 in 10.0 mi Calm Calm - N/A   Mostly Cloudy
8:35 PM 73.4 °F - 64.4 °F 73% 29.93 in 10.0 mi Calm Calm - N/A   Mostly Cloudy
8:55 PM 71.6 °F - 64.4 °F 78% 29.93 in 10.0 mi Calm Calm - N/A   Clear
9:35 PM 71.6 °F - 64.4 °F 78% 29.95 in 10.0 mi Calm Calm - N/A   Clear
10:15 PM 71.6 °F - 62.6 °F 73% 29.96 in 10.0 mi North 3.5 mph - N/A   Clear
10:35 PM 71.6 °F - 60.8 °F 69% 29.96 in 10.0 mi North 3.5 mph - N/A   Clear
10:55 PM 68.0 °F - 62.6 °F 83% 29.97 in 10.0 mi ESE 3.5 mph - N/A   Clear
11:15 PM 68.0 °F - 62.6 °F 83% 29.97 in 10.0 mi East 3.5 mph - N/A   Clear
11:35 PM 66.2 °F - 62.6 °F 88% 29.97 in 10.0 mi East 3.5 mph - N/A   Clear
11:55 PM 66.2 °F - 60.8 °F 83% 29.97 in 10.0 mi Calm Calm - N/A   Clear